CAPE
366 369 217 351 357 552 833 847 1043 1126 968 707 563 524 430 313 212 161 165 163 168 130 252 236 194 179 300 302 183 165 273 285
371 324 267 334 297 320 462 609 685 607 569 473 417 296 97 31 17 0 105 199 199 251 301 309 334 309 340 340 370 302 145 164
216 186 178 150 117 137 293 371 406 330 280 181 36 18 0 2 1 0 0 21 20 92 185 200 182 202 271 317 386 523 539 169
185 155 105 82 74 43 103 65 12 51 0 0 0 0 0 0 0 0 0 0 0 0 0 3 38 50 82 159 282 415 599 622
2 0 0 0 1 4 0 4 2 0 0 0 0 0 0 0 0 0 0 0 0 0 0 0 0 0 0 0 0 26 253 466
0 0 0 0 2 0 0 0 0 0 0 0 0 0 0 0 0 0 0 0 0 0 0 0 0 0 0 0 0 0 0 0
0 0 0 0 0 0 0 0 0 0 0 0 0 0 0 0 0 0 0 0 0 0 0 0 0 0 0 0 0 0 0 0
0 0 0 0 0 0 0 0 0 0 0 0 0 0 0 0 0 0 0 0 0 0 0 0 0 0 0 0 0 0 0 0
0 0 0 0 0 0 0 0 0 0 0 0 0 0 0 0 0 0 0 0 0 0 0 0 0 0 0 0 0 0 0 0
0 0 0 0 0 0 0 0 0 0 0 0 0 0 0 0 0 0 0 0 0 0 0 0 2 0 3 5 2 0 0 0
0 0 0 0 0 0 0 0 0 0 0 0 0 0 0 0 0 0 1 1 3 6 7 7 9 2 6 12 11 10 3 7
0 0 0 0 0 0 0 0 0 0 0 0 0 0 0 0 0 1 2 9 12 13 11 14 7 7 14 19 25 6 7 5
0 0 0 0 0 0 0 0 0 0 0 1 0 0 0 0 1 7 9 6 5 5 3 21 20 14 30 30 25 38 21 22
0 0 0 0 0 0 0 0 0 0 2 4 6 6 3 4 7 2 8 1 3 11 13 24 26 20 26 33 22 22 11 19
0 0 0 0 0 0 0 0 0 0 0 1 6 5 2 11 14 7 4 4 6 10 4 7 17 13 15 22 11 13 12 8
0 0 0 0 0 0 0 0 0 0 0 1 5 4 15 9 3 11 13 12 14 4 6 22 13 6 14 11 8 7 13 14
0 0 0 0 0 0 0 0 0 0 0 3 7 12 16 9 17 6 2 3 1 7 11 14 12 1 0 0 0 0 1 3
0 0 0 0 0 0 0 0 0 0 2 8 7 2 9 15 1 7 11 7 6 7 13 12 10 11 3 0 0 0 3 3
0 0 0 0 0 0 0 0 0 0 6 5 9 3 6 8 12 11 3 0 0 2 6 10 11 19 9 5 0 1 1 2
0 0 0 0 0 0 0 0 0 3 8 7 12 13 15 4 1 0 0 0 0 0 0 1 4 14 25 12 5 4 5 8
CIN
-188 -170 -215 -150 -135 -82 -24 -26 -13 -1 -1 -14 -27 -30 -44 -66 -116 -133 -131 -127 -138 -125 -45 -54 -72 -94 -26 -24 -37 -21 -1 -1
-184 -190 -210 -164 -157 -136 -85 -42 -25 -42 -21 -35 -41 -65 -184 -268 -299 -0 -160 -117 -146 -120 -75 -57 -50 -41 -36 -32 -7 -15 -63 -41
-236 -237 -224 -218 -219 -210 -129 -107 -96 -95 -92 -129 -169 -129 -0 -0 -1 -0 -0 -142 -281 -203 -124 -120 -126 -89 -50 -31 -18 -1 -1 -21
-240 -241 -268 -276 -275 -292 -227 -253 -104 -247 -0 -0 -0 -0 -0 -0 -0 -0 -0 -0 -0 -0 -0 -38 -42 -176 -157 -89 -44 -21 -2 -1
-26 -0 -0 -28 -29 -28 -0 -19 -0 -0 -0 -0 -0 -0 -0 -0 -0 -0 -0 -0 -0 -0 -0 -0 -0 -0 -0 -0 -15 -163 -29 -2
-0 -0 -0 -0 -1 -0 -0 -0 -0 -0 -0 -0 -0 -0 -0 -0 -0 -0 -0 -0 -0 -0 -0 -0 -0 -0 -0 -0 -0 -0 -0 -0
-0 -0 -0 -0 -0 -0 -0 -0 -0 -0 -0 -0 -0 -0 -0 -0 -0 -0 -0 -0 -0 -0 -0 -0 -0 -0 -0 -0 -0 -0 -0 -0
-0 -0 -0 -0 -0 -0 -0 -0 -0 -0 -0 -0 -0 -0 -0 -0 -0 -0 -0 -0 -0 -0 -0 -0 -0 -0 -0 -0 -0 -0 -0 -0
-0 -0 -0 -0 -0 -0 -0 -0 -0 -0 -0 -0 -0 -0 -0 -0 -0 -0 -0 -0 -0 -0 -0 -0 -0 -0 -0 -0 -0 -0 -0 -0
-0 -0 -0 -0 -0 -0 -0 -0 -0 -0 -0 -0 -0 -0 -0 -0 -0 -0 -0 -0 -0 -0 -1 -0 -1 -0 -1 -1 -2 -0 -0 -0
-0 -0 -0 -0 -0 -0 -0 -0 -0 -0 -0 -0 -0 -0 -0 -0 -0 -0 -0 -0 -0 -1 -0 -1 -1 -1 -2 -1 -1 -1 -1 -1
-0 -0 -0 -0 -0 -0 -0 -0 -0 -0 -0 -0 -0 -0 -0 -0 -0 -1 -1 -0 -0 -0 -1 -0 -1 -1 -0 -0 -0 -0 -0 -0
-0 -0 -0 -0 -0 -0 -0 -0 -0 -0 -1 -1 -0 -0 -0 -0 -1 -1 -1 -1 -1 -0 -2 -0 -0 -1 -0 -0 -0 -1 -0 -1
-0 -0 -0 -0 -0 -0 -0 -0 -0 -0 -1 -1 -1 -1 -1 -2 -1 -3 -2 -4 -3 -0 -0 -0 -1 -1 -1 -0 -1 -0 -1 -0
-0 -0 -0 -0 -0 -0 -0 -0 -0 -0 -0 -1 -0 -0 -2 -1 -1 -0 -1 -1 -1 -0 -2 -1 -0 -1 -1 -1 -0 -0 -1 -1
-0 -0 -0 -0 -0 -0 -0 -0 -0 -0 -0 -1 -0 -0 -0 -0 -1 -0 -0 -0 -0 -2 -2 -1 -1 -1 -1 -1 -1 -1 -1 -1
-0 -0 -0 -0 -0 -0 -0 -0 -0 -0 -2 -1 -0 -1 -1 -0 -0 -0 -5 -5 -4 -1 -2 -1 -1 -0 -0 -0 -0 -0 -1 -0
-0 -0 -0 -0 -0 -0 -0 -0 -0 -0 -1 -0 -1 -3 -1 -0 -3 -1 -0 -1 -1 -1 -1 -1 -1 -2 -1 -0 -0 -0 -1 -1
-0 -0 -0 -0 -0 -0 -0 -0 -0 -1 -1 -1 -0 -2 -1 -1 -1 -1 -1 -0 -0 -1 -1 -1 -1 -0 -1 -0 -1 -1 -1 -1
-0 -0 -0 -0 -0 -0 -0 -0 -0 -1 -0 -0 -0 -1 -0 -1 -0 -0 -0 -0 -0 -0 -0 -1 -1 -1 -1 -1 -1 -1 -1 -3
Wind_Speed
17 17 17 18 18 19 19 19 20 20 20 20 20 22 23 23 26 27 25 24 25 24 22 23 24 25 26 26 25 25 25 24
17 17 17 17 18 19 20 21 21 21 21 21 22 23 24 24 24 27 25 25 25 25 24 24 25 27 27 27 26 24 24 23
17 16 17 17 18 20 21 22 22 22 22 23 23 23 23 23 24 26 27 24 25 25 24 24 25 27 28 28 27 26 24 22
16 17 18 19 19 21 22 23 24 23 23 23 23 23 23 23 24 26 27 27 27 26 26 27 28 29 30 29 29 28 28 26
16 18 19 19 20 21 22 22 23 23 23 23 24 25 24 24 24 25 27 28 28 28 27 27 29 31 31 31 31 30 29 28
16 18 19 20 20 22 22 22 23 23 23 23 24 25 25 26 26 26 28 28 29 28 28 29 32 31 31 32 32 33 32 32
15 17 18 20 21 22 23 23 24 25 24 24 24 26 27 27 27 27 29 28 29 29 28 30 32 31 31 33 34 35 37 36
13 15 17 19 21 22 23 25 26 26 26 26 25 25 27 28 28 29 29 29 30 30 29 31 32 32 33 34 35 35 36 37
12 14 16 18 20 22 23 25 27 28 29 30 30 31 29 30 30 31 31 31 31 31 31 31 32 32 33 34 35 36 35 35
11 12 14 17 18 20 22 25 28 30 30 32 32 31 30 30 30 30 30 31 31 31 32 31 32 31 31 33 34 35 32 32
9 11 13 15 17 19 22 25 28 31 33 33 35 32 30 32 33 31 31 31 31 31 31 30 30 29 30 30 30 30 30 29
8 10 11 13 15 18 22 25 29 32 34 36 36 35 34 32 31 31 30 29 30 30 29 28 28 27 27 27 26 26 27 28
7 8 9 12 14 18 21 25 30 33 35 36 35 34 33 32 32 31 29 28 28 28 27 27 26 25 25 25 25 25 25 26
4 6 9 11 14 18 22 28 31 33 35 35 34 34 33 32 33 31 30 28 27 26 25 24 24 24 24 24 24 25 26 27
2 4 8 11 14 19 24 29 32 34 34 34 33 32 30 30 30 29 28 27 26 25 23 23 23 23 23 24 25 25 27 27
2 4 7 10 14 19 25 28 32 33 33 32 30 29 28 28 27 26 26 25 24 23 22 22 22 23 24 25 25 26 27 27
2 3 6 10 15 20 23 28 31 31 30 28 27 26 26 25 25 24 24 24 24 23 22 21 22 24 26 26 27 28 28 28
3 4 6 11 15 18 23 27 28 28 27 26 25 25 23 23 23 23 23 23 23 22 21 22 24 25 27 27 27 28 28 29
3 4 7 10 14 17 22 25 25 25 25 24 24 23 22 22 21 20 20 21 21 21 22 24 25 26 27 27 27 28 29 30
4 5 7 10 13 17 21 23 22 22 22 22 22 21 22 21 18 18 18 19 21 23 24 25 26 25 25 27 27 28 29 31
Wind_Direction
53 38 21 9 6 356 355 356 354 354 2 4 5 2 357 355 348 345 348 347 345 345 346 348 345 348 345 345 342 338 336 330
50 39 25 11 2 354 347 343 347 353 358 1 0 360 355 353 352 348 349 345 343 341 342 343 344 342 340 340 341 341 341 336
43 32 22 12 1 354 348 349 354 356 355 354 357 0 0 359 355 351 349 348 342 340 339 340 339 339 338 335 337 336 337 338
30 23 14 3 357 346 342 348 350 350 356 355 359 1 2 0 357 350 346 343 340 338 336 334 333 333 331 332 331 330 330 329
16 16 12 6 5 1 357 357 357 357 356 356 355 353 357 356 357 354 346 340 336 334 334 332 329 328 328 328 327 327 327 327
13 12 10 9 12 7 5 3 0 3 359 0 357 354 356 353 351 349 345 340 336 333 331 330 328 328 327 326 324 322 321 321
10 13 14 16 16 13 9 4 359 356 356 357 358 354 352 352 351 348 344 340 336 333 331 329 328 328 327 326 323 320 316 315
10 15 13 13 15 15 14 3 358 360 354 353 355 354 350 348 346 344 342 340 336 333 331 330 328 327 326 325 325 322 317 313
9 12 11 12 15 15 13 7 2 359 355 351 349 345 345 343 340 339 339 336 335 333 331 329 329 329 328 326 325 324 322 321
5 9 9 7 11 14 13 7 1 358 354 351 348 344 342 341 339 339 339 336 334 332 330 329 330 329 331 331 330 327 327 329
359 3 5 8 10 10 9 4 360 356 352 350 347 345 342 338 336 337 337 335 332 332 332 332 332 334 334 336 338 338 334 336
353 357 4 8 10 9 4 0 357 354 352 348 346 344 342 341 339 339 338 339 335 335 336 338 340 339 341 341 345 346 346 345
344 1 8 9 8 4 2 359 355 352 350 349 346 345 344 342 339 338 340 341 340 341 342 343 346 347 349 351 348 348 348 349
358 8 10 8 4 1 358 353 351 351 351 350 349 347 346 345 343 342 341 343 343 348 350 352 352 349 349 346 346 351 348 344
7 10 3 1 358 356 354 351 351 351 351 352 352 351 352 350 350 349 348 348 348 350 353 352 348 347 346 346 350 351 349 349
12 3 3 3 359 356 353 353 353 353 354 354 356 357 358 360 2 3 2 3 3 1 356 354 350 352 357 356 358 357 359 358
78 36 11 3 358 355 356 355 355 357 359 2 4 5 5 6 6 4 5 7 7 6 4 359 2 2 359 355 1 359 1 0
87 42 15 3 360 2 360 359 360 3 8 9 10 9 10 7 4 1 3 4 4 3 360 4 7 3 3 5 9 10 10 8
86 42 16 8 7 5 3 2 6 11 14 16 17 21 23 13 356 350 350 352 348 347 355 2 4 8 12 15 16 13 10 8
77 39 28 17 12 8 6 9 14 20 23 30 38 41 34 4 343 339 339 343 344 350 356 3 9 16 17 15 13 11 8 5